Time,TemperatureF,DewpointF,PressureIn,WindDirection,WindDirectionDegrees,WindSpeedMPH,WindSpeedGustMPH,Humidity,HourlyPrecipIn,Conditions,Clouds,dailyrainin,SoftwareType,DateUTC
2013-07-16 00:04:00,71.8,63.5,30.14,NNW,341,0.0,3.0,75,0.00,FEW,OVC,0.00,WeatherDisplay:10.37,2013-07-16 04:04:00,
2013-07-16 00:09:00,71.8,63.1,30.14,NW,325,0.0,2.0,74,0.00,FEW,OVC,0.00,WeatherDisplay:10.37,2013-07-16 04:09:00,
2013-07-16 00:14:00,72.0,63.3,30.14,NW,321,0.0,2.0,74,0.00,FEW,OVC,0.00,WeatherDisplay:10.37,2013-07-16 04:14:00,
2013-07-16 00:19:00,71.8,63.4,30.14,NNW,332,0.0,3.0,75,0.00,FEW,OVC,0.00,WeatherDisplay:10.37,2013-07-16 04:19:00,
2013-07-16 00:24:00,71.7,63.4,30.15,NNW,339,1.0,2.0,75,0.00,FEW,OVC,0.00,WeatherDisplay:10.37,2013-07-16 04:24:00,
2013-07-16 00:29:00,71.5,63.6,30.15,NNW,341,0.0,1.0,76,0.00,FEW,OVC,0.00,WeatherDisplay:10.37,2013-07-16 04:29:00,
2013-07-16 00:34:00,71.5,63.5,30.15,NNW,346,0.0,1.0,76,0.00,FEW,OVC,0.00,WeatherDisplay:10.37,2013-07-16 04:34:00,
2013-07-16 00:39:00,71.1,63.9,30.15,North,5,0.0,0.0,78,0.00,FEW,OVC,0.00,WeatherDisplay:10.37,2013-07-16 04:39:00,
2013-07-16 00:44:00,70.9,63.7,30.15,North,9,0.0,1.0,78,0.00,FEW,OVC,0.00,WeatherDisplay:10.37,2013-07-16 04:44:00,
2013-07-16 00:49:00,70.6,63.8,30.15,North,9,0.0,0.0,79,0.00,FEW,OVC,0.00,WeatherDisplay:10.37,2013-07-16 04:49:00,
2013-07-16 00:54:00,70.5,63.6,30.15,North,9,0.0,0.0,79,0.00,FEW,OVC,0.00,WeatherDisplay:10.37,2013-07-16 04:54:00,
2013-07-16 00:59:00,70.2,63.0,30.14,North,9,0.0,0.0,78,0.00,FEW,OVC,0.00,WeatherDisplay:10.37,2013-07-16 04:59:00,
2013-07-16 01:04:00,70.0,63.9,30.15,North,9,0.0,0.0,81,0.00,FEW,OVC,0.00,WeatherDisplay:10.37,2013-07-16 05:04:00,
2013-07-16 01:09:00,70.0,63.2,30.15,North,9,0.0,0.0,79,0.00,FEW,OVC,0.00,WeatherDisplay:10.37,2013-07-16 05:09:00,
2013-07-16 01:14:00,70.0,63.9,30.15,North,2,0.0,2.0,81,0.00,FEW,OVC,0.00,WeatherDisplay:10.37,2013-07-16 05:14:00,
2013-07-16 01:19:00,69.8,63.3,30.15,NNW,333,0.0,0.0,80,0.00,FEW,OVC,0.00,WeatherDisplay:10.37,2013-07-16 05:19:00,
2013-07-16 01:24:00,69.8,63.0,30.15,NNW,333,0.0,0.0,79,0.00,FEW,OVC,0.00,WeatherDisplay:10.37,2013-07-16 05:24:00,
2013-07-16 01:29:00,69.8,63.3,30.15,NNW,333,0.0,0.0,80,0.00,FEW,OVC,0.00,WeatherDisplay:10.37,2013-07-16 05:29:00,
2013-07-16 01:34:00,69.6,63.5,30.15,NNW,333,0.0,0.0,81,0.00,FEW,OVC,0.00,WeatherDisplay:10.37,2013-07-16 05:34:00,
2013-07-16 01:39:00,69.6,62.8,30.15,NNW,333,0.0,0.0,79,0.00,FEW,OVC,0.00,WeatherDisplay:10.37,2013-07-16 05:39:00,
2013-07-16 01:44:00,69.9,63.1,30.15,NNW,333,0.0,1.0,79,0.00,FEW,OVC,0.00,WeatherDisplay:10.37,2013-07-16 05:44:00,
2013-07-16 01:49:00,69.9,63.0,30.15,NNW,332,0.0,1.0,79,0.00,FEW,OVC,0.00,WeatherDisplay:10.37,2013-07-16 05:49:00,
2013-07-16 01:54:00,69.9,63.1,30.15,NNW,335,0.0,4.0,79,0.00,FEW,OVC,0.00,WeatherDisplay:10.37,2013-07-16 05:54:00,
2013-07-16 01:59:00,69.9,63.4,30.15,NNW,336,0.0,3.0,80,0.00,FEW,OVC,0.00,WeatherDisplay:10.37,2013-07-16 05:59:00,
2013-07-16 02:04:00,69.8,63.3,30.15,NNW,332,0.0,3.0,80,0.00,FEW,OVC,0.00,WeatherDisplay:10.37,2013-07-16 06:04:00,
2013-07-16 02:09:00,70.1,63.3,30.15,NNW,329,0.0,1.0,79,0.00,FEW,OVC,0.00,WeatherDisplay:10.37,2013-07-16 06:09:00,
2013-07-16 02:14:00,70.5,63.3,30.15,NW,321,0.0,2.0,78,0.00,SKC,OVC,0.00,WeatherDisplay:10.37,2013-07-16 06:14:00,
2013-07-16 02:19:00,70.8,63.6,30.15,NW,323,0.0,1.0,78,0.00,SKC,OVC,0.00,WeatherDisplay:10.37,2013-07-16 06:19:00,
2013-07-16 02:24:00,70.8,63.6,30.15,NNW,333,0.0,2.0,78,0.00,SKC,OVC,0.00,WeatherDisplay:10.37,2013-07-16 06:24:00,
2013-07-16 02:29:00,70.5,63.3,30.16,NNW,333,0.0,2.0,78,0.00,SKC,OVC,0.00,WeatherDisplay:10.37,2013-07-16 06:29:00,
2013-07-16 02:34:00,70.3,63.5,30.16,NNW,338,0.0,2.0,79,0.00,SKC,OVC,0.00,WeatherDisplay:10.37,2013-07-16 06:34:00,
2013-07-16 02:39:00,70.2,63.8,30.16,NNW,342,0.0,0.0,80,0.00,SKC,OVC,0.00,WeatherDisplay:10.37,2013-07-16 06:39:00,
2013-07-16 02:44:00,70.0,63.5,30.16,NNW,342,0.0,0.0,80,0.00,SKC,OVC,0.00,WeatherDisplay:10.37,2013-07-16 06:44:00,
2013-07-16 02:49:00,70.1,63.6,30.16,NNW,342,0.0,0.0,80,0.00,SKC,OVC,0.00,WeatherDisplay:10.37,2013-07-16 06:49:00,
2013-07-16 02:54:00,70.0,63.5,30.16,NNW,342,0.0,0.0,80,0.00,SKC,OVC,0.00,WeatherDisplay:10.37,2013-07-16 06:54:00,
2013-07-16 02:59:00,70.0,63.9,30.16,NNW,342,0.0,0.0,81,0.00,SKC,OVC,0.00,WeatherDisplay:10.37,2013-07-16 06:59:00,
2013-07-16 03:04:00,70.0,64.2,30.16,NNW,342,0.0,0.0,82,0.00,SKC,OVC,0.00,WeatherDisplay:10.37,2013-07-16 07:04:00,
2013-07-16 03:09:00,70.0,64.2,30.16,NNW,342,0.0,0.0,82,0.00,SKC,OVC,0.00,WeatherDisplay:10.37,2013-07-16 07:09:00,
2013-07-16 03:14:00,70.1,64.3,30.16,NNW,342,0.0,0.0,82,0.00,SKC,OVC,0.00,WeatherDisplay:10.37,2013-07-16 07:14:00,
2013-07-16 03:19:00,70.1,64.7,30.15,NNW,342,0.0,0.0,83,0.00,SKC,OVC,0.00,WeatherDisplay:10.37,2013-07-16 07:19:00,
2013-07-16 03:24:00,70.1,64.4,30.15,NNW,342,0.0,0.0,82,0.00,SKC,OVC,0.00,WeatherDisplay:10.37,2013-07-16 07:24:00,
2013-07-16 03:29:00,70.4,64.3,30.15,NNW,342,0.0,0.0,81,0.00,SKC,OVC,0.00,WeatherDisplay:10.37,2013-07-16 07:29:00,
2013-07-16 03:34:00,70.5,64.7,30.15,NNW,342,0.0,0.0,82,0.00,SKC,OVC,0.00,WeatherDisplay:10.37,2013-07-16 07:34:00,
2013-07-16 03:39:00,70.5,64.7,30.15,NNW,342,0.0,0.0,82,0.00,SKC,OVC,0.00,WeatherDisplay:10.37,2013-07-16 07:39:00,
2013-07-16 03:44:00,70.3,64.5,30.15,NNW,340,0.0,1.0,82,0.00,SKC,OVC,0.00,WeatherDisplay:10.37,2013-07-16 07:44:00,
2013-07-16 03:49:00,70.3,64.5,30.15,NNW,336,0.0,0.0,82,0.00,SKC,OVC,0.00,WeatherDisplay:10.37,2013-07-16 07:49:00,
2013-07-16 03:54:00,70.1,64.3,30.15,NNW,336,0.0,0.0,82,0.00,SKC,OVC,0.00,WeatherDisplay:10.37,2013-07-16 07:54:00,
2013-07-16 03:59:00,69.7,64.6,30.15,NNW,336,0.0,0.0,84,0.00,SKC,OVC,0.00,WeatherDisplay:10.37,2013-07-16 07:59:00,
2013-07-16 04:04:00,69.3,64.3,30.15,NNW,336,0.0,0.0,84,0.00,SKC,OVC,0.00,WeatherDisplay:10.37,2013-07-16 08:04:00,
2013-07-16 04:09:00,69.1,64.4,30.15,NNW,336,0.0,0.0,85,0.00,SKC,OVC,0.00,WeatherDisplay:10.37,2013-07-16 08:09:00,
2013-07-16 04:14:00,69.0,64.3,30.15,NNW,336,0.0,0.0,85,0.00,FEW,OVC,0.00,WeatherDisplay:10.37,2013-07-16 08:14:00,
2013-07-16 04:19:00,69.1,64.4,30.15,NNW,336,0.0,0.0,85,0.00,FEW,OVC,0.00,WeatherDisplay:10.37,2013-07-16 08:19:00,
2013-07-16 04:24:00,69.2,64.5,30.15,NNW,336,0.0,0.0,85,0.00,FEW,OVC,0.00,WeatherDisplay:10.37,2013-07-16 08:24:00,
2013-07-16 04:29:00,69.1,64.4,30.15,NNW,336,0.0,0.0,85,0.00,FEW,OVC,0.00,WeatherDisplay:10.37,2013-07-16 08:29:00,
2013-07-16 04:39:00,68.8,64.4,30.15,NNW,336,0.0,0.0,86,0.00,FEW,OVC,0.00,WeatherDisplay:10.37,2013-07-16 08:39:00,
2013-07-16 04:44:00,68.8,64.4,30.15,NNW,336,0.0,0.0,86,0.00,FEW,OVC,0.00,WeatherDisplay:10.37,2013-07-16 08:44:00,
2013-07-16 04:49:00,68.8,64.4,30.16,NNW,336,0.0,0.0,86,0.00,FEW,OVC,0.00,WeatherDisplay:10.37,2013-07-16 08:49:00,
2013-07-16 04:54:00,68.8,64.4,30.16,NNW,336,0.0,0.0,86,0.00,FEW,OVC,0.00,WeatherDisplay:10.37,2013-07-16 08:54:00,
2013-07-16 04:59:00,68.8,64.4,30.16,NNW,336,0.0,0.0,86,0.00,FEW,OVC,0.00,WeatherDisplay:10.37,2013-07-16 08:59:00,
2013-07-16 05:04:00,68.7,64.3,30.16,NNW,336,0.0,0.0,86,0.00,FEW,OVC,0.00,WeatherDisplay:10.37,2013-07-16 09:04:00,
2013-07-16 05:09:00,68.6,64.6,30.16,NNW,336,0.0,0.0,87,0.00,FEW,OVC,0.00,WeatherDisplay:10.37,2013-07-16 09:09:00,
2013-07-16 05:14:00,68.7,64.6,30.16,NNW,335,0.0,0.0,87,0.00,FEW,OVC,0.00,WeatherDisplay:10.37,2013-07-16 09:14:00,
2013-07-16 05:19:00,68.9,64.9,30.16,NNW,334,0.0,0.0,87,0.00,FEW,OVC,0.00,WeatherDisplay:10.37,2013-07-16 09:19:00,
2013-07-16 05:24:00,69.0,64.6,30.16,NNW,333,0.0,0.0,86,0.00,FEW,OVC,0.00,WeatherDisplay:10.37,2013-07-16 09:24:00,
2013-07-16 05:29:00,68.9,64.8,30.16,NNW,333,0.0,0.0,87,0.00,FEW,OVC,0.00,WeatherDisplay:10.37,2013-07-16 09:29:00,
2013-07-16 05:34:00,68.6,64.6,30.16,NNW,333,0.0,0.0,87,0.00,FEW,OVC,0.00,WeatherDisplay:10.37,2013-07-16 09:34:00,
2013-07-16 05:39:00,68.5,64.5,30.16,NNW,334,1.0,2.0,87,0.00,FEW,OVC,0.00,WeatherDisplay:10.37,2013-07-16 09:39:00,
2013-07-16 05:44:00,68.8,64.8,30.17,NNW,334,0.0,3.0,87,0.00,FEW,OVC,0.00,WeatherDisplay:10.37,2013-07-16 09:44:00,
2013-07-16 05:49:00,69.2,64.8,30.17,NNW,335,0.0,4.0,86,0.00,FEW,OVC,0.00,WeatherDisplay:10.37,2013-07-16 09:49:00,
2013-07-16 05:54:00,69.4,64.6,30.17,NNW,332,0.0,3.0,85,0.00,FEW,OVC,0.00,WeatherDisplay:10.37,2013-07-16 09:54:00,
2013-07-16 05:59:00,69.4,64.7,30.17,NW,322,0.0,2.0,85,0.00,FEW,OVC,0.00,WeatherDisplay:10.37,2013-07-16 09:59:00,
2013-07-16 06:04:00,69.6,64.5,30.17,NNW,330,0.0,2.0,84,0.00,FEW,OVC,0.00,WeatherDisplay:10.37,2013-07-16 10:04:00,
2013-07-16 06:09:00,69.8,64.7,30.17,NNW,337,0.0,0.0,84,0.00,FEW,OVC,0.00,WeatherDisplay:10.37,2013-07-16 10:09:00,
2013-07-16 06:14:00,70.0,64.6,30.17,North,349,0.0,0.0,83,0.00,FEW,OVC,0.00,WeatherDisplay:10.37,2013-07-16 10:14:00,
2013-07-16 06:19:00,70.1,64.7,30.17,NNW,341,0.0,4.0,83,0.00,FEW,OVC,0.00,WeatherDisplay:10.37,2013-07-16 10:19:00,
2013-07-16 06:24:00,70.5,64.7,30.18,NW,318,0.0,3.0,82,0.00,FEW,OVC,0.00,WeatherDisplay:10.37,2013-07-16 10:24:00,
2013-07-16 06:29:00,70.7,64.9,30.18,NNW,330,0.0,1.0,82,0.00,FEW,OVC,0.00,WeatherDisplay:10.37,2013-07-16 10:29:00,
2013-07-16 06:34:00,70.9,64.8,30.18,North,359,0.0,2.0,81,0.00,FEW,OVC,0.00,WeatherDisplay:10.37,2013-07-16 10:34:00,
2013-07-16 06:39:00,70.8,65.0,30.18,ENE,63,0.0,0.0,82,0.00,FEW,OVC,0.00,WeatherDisplay:10.37,2013-07-16 10:39:00,
2013-07-16 06:44:00,70.5,64.8,30.18,ENE,67,0.0,0.0,82,0.00,FEW,OVC,0.00,WeatherDisplay:10.37,2013-07-16 10:44:00,
2013-07-16 06:49:00,70.8,65.1,30.18,NNE,26,0.0,2.0,82,0.00,FEW,OVC,0.00,WeatherDisplay:10.37,2013-07-16 10:49:00,
2013-07-16 06:54:00,71.3,65.5,30.18,NNW,343,0.0,2.0,82,0.00,FEW,OVC,0.00,WeatherDisplay:10.37,2013-07-16 10:54:00,
2013-07-16 06:59:00,71.7,65.2,30.18,NNW,344,0.0,1.0,80,0.00,FEW,OVC,0.00,WeatherDisplay:10.37,2013-07-16 10:59:00,
2013-07-16 07:04:00,72.3,65.4,30.18,NNW,329,0.0,3.0,79,0.00,FEW,OVC,0.00,WeatherDisplay:10.37,2013-07-16 11:04:00,
2013-07-16 07:09:00,72.7,65.8,30.19,NNW,328,0.0,2.0,79,0.00,FEW,OVC,0.00,WeatherDisplay:10.37,2013-07-16 11:09:00,
2013-07-16 07:14:00,73.0,65.7,30.19,NNW,335,0.0,2.0,78,0.00,FEW,OVC,0.00,WeatherDisplay:10.37,2013-07-16 11:14:00,
2013-07-16 07:19:00,73.4,66.1,30.19,NNW,343,0.0,3.0,78,0.00,FEW,OVC,0.00,WeatherDisplay:10.37,2013-07-16 11:19:00,
2013-07-16 07:24:00,73.8,66.1,30.19,North,350,0.0,2.0,77,0.00,FEW,OVC,0.00,WeatherDisplay:10.37,2013-07-16 11:24:00,
2013-07-16 07:29:00,74.3,66.2,30.19,North,9,0.0,3.0,76,0.00,FEW,OVC,0.00,WeatherDisplay:10.37,2013-07-16 11:29:00,
2013-07-16 07:34:00,74.8,66.4,30.19,North,2,0.0,1.0,75,0.00,FEW,OVC,0.00,WeatherDisplay:10.37,2013-07-16 11:34:00,
2013-07-16 07:39:00,75.3,66.4,30.19,NNW,343,1.0,3.0,74,0.00,FEW,OVC,0.00,WeatherDisplay:10.37,2013-07-16 11:39:00,
2013-07-16 07:49:00,76.0,66.3,30.20,NNW,347,0.0,2.0,72,0.00,FEW,OVC,0.00,WeatherDisplay:10.37,2013-07-16 11:49:00,
2013-07-16 07:54:00,76.3,66.2,30.20,NW,326,1.0,4.0,71,0.00,FEW,OVC,0.00,WeatherDisplay:10.37,2013-07-16 11:54:00,
2013-07-16 07:59:00,76.9,66.8,30.20,NNW,336,0.0,3.0,71,0.00,FEW,OVC,0.00,WeatherDisplay:10.37,2013-07-16 11:59:00,
2013-07-16 08:04:00,77.2,66.6,30.20,North,349,0.0,2.0,70,0.00,FEW,OVC,0.00,WeatherDisplay:10.37,2013-07-16 12:04:00,
2013-07-16 08:09:00,77.3,66.8,30.20,NNW,327,1.0,4.0,70,0.00,FEW,OVC,0.00,WeatherDisplay:10.37,2013-07-16 12:09:00,
2013-07-16 08:14:00,77.5,66.9,30.20,NW,326,0.0,3.0,70,0.00,FEW,OVC,0.00,WeatherDisplay:10.37,2013-07-16 12:14:00,
2013-07-16 08:19:00,77.8,66.8,30.20,NW,314,0.0,3.0,69,0.00,FEW,OVC,0.00,WeatherDisplay:10.37,2013-07-16 12:19:00,
2013-07-16 08:24:00,78.1,67.1,30.20,NW,307,1.0,4.0,69,0.00,FEW,OVC,0.00,WeatherDisplay:10.37,2013-07-16 12:24:00,
2013-07-16 08:29:00,78.3,67.7,30.20,NNW,328,0.0,1.0,70,0.00,FEW,OVC,0.00,WeatherDisplay:10.37,2013-07-16 12:29:00,
2013-07-16 08:34:00,78.5,67.1,30.20,NNW,340,0.0,3.0,68,0.00,FEW,OVC,0.00,WeatherDisplay:10.37,2013-07-16 12:34:00,
2013-07-16 08:39:00,78.9,67.8,30.20,NNW,337,0.0,2.0,69,0.00,FEW,OVC,0.00,WeatherDisplay:10.37,2013-07-16 12:39:00,
2013-07-16 08:44:00,78.7,66.8,30.20,NNW,344,0.0,2.0,67,0.00,FEW,OVC,0.00,WeatherDisplay:10.37,2013-07-16 12:44:00,
2013-07-16 08:49:00,79.2,68.1,30.20,North,9,0.0,1.0,69,0.00,FEW,OVC,0.00,WeatherDisplay:10.37,2013-07-16 12:49:00,
2013-07-16 08:54:00,79.2,66.4,30.20,NNE,22,0.0,1.0,65,0.00,FEW,OVC,0.00,WeatherDisplay:10.37,2013-07-16 12:54:00,
2013-07-16 08:59:00,79.7,66.8,30.20,NE,48,0.0,2.0,65,0.00,FEW,OVC,0.00,WeatherDisplay:10.37,2013-07-16 12:59:00,
2013-07-16 09:04:00,80.0,67.2,30.20,ENE,64,0.0,1.0,65,0.00,FEW,OVC,0.00,WeatherDisplay:10.37,2013-07-16 13:04:00,
2013-07-16 09:09:00,80.4,68.0,30.20,NE,53,0.0,0.0,66,0.00,FEW,OVC,0.00,WeatherDisplay:10.37,2013-07-16 13:09:00,
2013-07-16 09:14:00,80.7,67.4,30.20,NE,56,0.0,2.0,64,0.00,FEW,OVC,0.00,WeatherDisplay:10.37,2013-07-16 13:14:00,
2013-07-16 09:19:00,81.0,66.8,30.20,NE,43,0.0,1.0,62,0.00,FEW,OVC,0.00,WeatherDisplay:10.37,2013-07-16 13:19:00,
2013-07-16 09:29:00,81.2,66.9,30.20,East,91,0.0,0.0,62,0.00,FEW,OVC,0.00,WeatherDisplay:10.37,2013-07-16 13:29:00,
2013-07-16 09:34:00,81.2,65.9,30.20,ENE,61,0.0,2.0,60,0.00,FEW,OVC,0.00,WeatherDisplay:10.37,2013-07-16 13:34:00,
2013-07-16 09:39:00,80.6,65.9,30.20,North,354,0.0,3.0,61,0.00,FEW,OVC,0.00,WeatherDisplay:10.37,2013-07-16 13:39:00,
2013-07-16 09:44:00,80.7,65.1,30.20,NNE,13,0.0,5.0,59,0.00,FEW,OVC,0.00,WeatherDisplay:10.37,2013-07-16 13:44:00,
2013-07-16 09:49:00,81.5,66.3,30.20,ENE,67,0.0,0.0,60,0.00,FEW,OVC,0.00,WeatherDisplay:10.37,2013-07-16 13:49:00,
2013-07-16 09:54:00,82.0,67.2,30.20,East,90,0.0,4.0,61,0.00,FEW,OVC,0.00,WeatherDisplay:10.37,2013-07-16 13:54:00,
2013-07-16 09:59:00,82.2,66.4,30.20,NNE,30,0.0,2.0,59,0.00,FEW,OVC,0.00,WeatherDisplay:10.37,2013-07-16 13:59:00,
2013-07-16 10:04:00,82.4,66.1,30.20,NNE,21,0.0,2.0,58,0.00,FEW,OVC,0.00,WeatherDisplay:10.37,2013-07-16 14:04:00,
2013-07-16 10:09:00,82.2,66.0,30.20,NNW,346,0.0,2.0,58,0.00,FEW,OVC,0.00,WeatherDisplay:10.37,2013-07-16 14:09:00,
2013-07-16 10:14:00,83.1,65.8,30.20,NW,305,0.0,1.0,56,0.00,FEW,OVC,0.00,WeatherDisplay:10.37,2013-07-16 14:14:00,
2013-07-16 10:19:00,83.0,66.7,30.20,NNW,337,1.0,3.0,58,0.00,FEW,OVC,0.00,WeatherDisplay:10.37,2013-07-16 14:19:00,
2013-07-16 10:24:00,83.1,65.8,30.20,NW,305,1.0,3.0,56,0.00,FEW,OVC,0.00,WeatherDisplay:10.37,2013-07-16 14:24:00,
2013-07-16 10:29:00,82.9,65.6,30.20,ESE,123,0.0,3.0,56,0.00,FEW,OVC,0.00,WeatherDisplay:10.37,2013-07-16 14:29:00,
2013-07-16 10:34:00,83.6,65.7,30.20,NNE,33,1.0,4.0,55,0.00,FEW,OVC,0.00,WeatherDisplay:10.37,2013-07-16 14:34:00,
2013-07-16 10:39:00,83.5,65.1,30.20,NNW,334,1.0,5.0,54,0.00,FEW,OVC,0.00,WeatherDisplay:10.37,2013-07-16 14:39:00,
2013-07-16 10:44:00,83.5,65.1,30.20,NW,326,1.0,2.0,54,0.00,FEW,OVC,0.00,WeatherDisplay:10.37,2013-07-16 14:44:00,
2013-07-16 10:49:00,84.0,66.1,30.20,NW,306,0.0,2.0,55,0.00,FEW,OVC,0.00,WeatherDisplay:10.37,2013-07-16 14:49:00,
2013-07-16 10:54:00,84.2,65.8,30.20,SSW,197,0.0,1.0,54,0.00,FEW,OVC,0.00,WeatherDisplay:10.37,2013-07-16 14:54:00,
2013-07-16 10:59:00,84.5,66.1,30.19,East,98,0.0,1.0,54,0.00,FEW,OVC,0.00,WeatherDisplay:10.37,2013-07-16 14:59:00,
2013-07-16 11:04:00,84.9,66.4,30.19,NNE,24,0.0,5.0,54,0.00,FEW,OVC,0.00,WeatherDisplay:10.37,2013-07-16 15:04:00,
2013-07-16 11:09:00,84.4,65.4,30.19,NW,320,1.0,5.0,53,0.00,FEW,OVC,0.00,WeatherDisplay:10.37,2013-07-16 15:09:00,
2013-07-16 11:14:00,84.6,66.1,30.19,NNW,345,0.0,3.0,54,0.00,FEW,OVC,0.00,WeatherDisplay:10.37,2013-07-16 15:14:00,
2013-07-16 11:19:00,85.0,67.0,30.19,ENE,61,0.0,0.0,55,0.00,FEW,OVC,0.00,WeatherDisplay:10.37,2013-07-16 15:19:00,
2013-07-16 11:24:00,85.5,67.0,30.19,East,97,0.0,0.0,54,0.00,FEW,OVC,0.00,WeatherDisplay:10.37,2013-07-16 15:24:00,
2013-07-16 11:29:00,85.6,66.0,30.19,ENE,71,0.0,4.0,52,0.00,FEW,OVC,0.00,WeatherDisplay:10.37,2013-07-16 15:29:00,
2013-07-16 11:34:00,86.0,67.9,30.19,SW,224,0.0,0.0,55,0.00,FEW,OVC,0.00,WeatherDisplay:10.37,2013-07-16 15:34:00,
2013-07-16 11:39:00,86.2,66.6,30.19,South,190,0.0,2.0,52,0.00,FEW,OVC,0.00,WeatherDisplay:10.37,2013-07-16 15:39:00,
2013-07-16 11:44:00,85.7,66.1,30.19,NW,320,0.0,3.0,52,0.00,FEW,OVC,0.00,WeatherDisplay:10.37,2013-07-16 15:44:00,
2013-07-16 11:49:00,85.4,66.8,30.19,NNW,337,0.0,3.0,54,0.00,FEW,OVC,0.00,WeatherDisplay:10.37,2013-07-16 15:49:00,
2013-07-16 11:54:00,85.6,65.4,30.18,NW,318,0.0,3.0,51,0.00,FEW,OVC,0.00,WeatherDisplay:10.37,2013-07-16 15:54:00,
2013-07-16 11:59:00,85.7,66.6,30.18,WSW,238,0.0,1.0,53,0.00,FEW,OVC,0.00,WeatherDisplay:10.37,2013-07-16 15:59:00,
2013-07-16 12:04:00,86.3,67.2,30.18,South,172,0.0,2.0,53,0.00,FEW,OVC,0.00,WeatherDisplay:10.37,2013-07-16 16:04:00,
2013-07-16 12:09:00,86.6,68.5,30.18,ESE,104,0.0,1.0,55,0.00,FEW,OVC,0.00,WeatherDisplay:10.37,2013-07-16 16:09:00,
2013-07-16 12:14:00,86.7,66.4,30.18,ENE,78,0.0,3.0,51,0.00,FEW,OVC,0.00,WeatherDisplay:10.37,2013-07-16 16:14:00,
2013-07-16 12:19:00,86.8,67.6,30.18,East,82,0.0,3.0,53,0.00,FEW,OVC,0.00,WeatherDisplay:10.37,2013-07-16 16:19:00,
2013-07-16 12:24:00,86.9,66.0,30.18,ENE,64,0.0,2.0,50,0.00,FEW,OVC,0.00,WeatherDisplay:10.37,2013-07-16 16:24:00,
2013-07-16 12:29:00,86.7,67.0,30.18,NE,45,0.0,2.0,52,0.00,FEW,OVC,0.00,WeatherDisplay:10.37,2013-07-16 16:29:00,
2013-07-16 12:34:00,86.8,65.9,30.18,NW,313,1.0,4.0,50,0.00,FEW,OVC,0.00,WeatherDisplay:10.37,2013-07-16 16:34:00,
2013-07-16 12:39:00,86.6,65.7,30.18,NNW,333,0.0,5.0,50,0.00,FEW,OVC,0.00,WeatherDisplay:10.37,2013-07-16 16:39:00,
2013-07-16 12:44:00,85.6,66.0,30.17,North,9,0.0,0.0,52,0.00,FEW,OVC,0.00,WeatherDisplay:10.37,2013-07-16 16:44:00,
2013-07-16 12:49:00,86.0,65.8,30.17,NNE,20,0.0,0.0,51,0.00,FEW,OVC,0.00,WeatherDisplay:10.37,2013-07-16 16:49:00,
2013-07-16 12:54:00,85.6,66.5,30.17,ENE,63,0.0,0.0,53,0.00,FEW,OVC,0.00,WeatherDisplay:10.37,2013-07-16 16:54:00,
2013-07-16 12:59:00,85.7,69.7,30.17,SE,127,0.0,0.0,59,0.00,FEW,OVC,0.00,WeatherDisplay:10.37,2013-07-16 16:59:00,
2013-07-16 13:04:00,86.9,67.7,30.17,ESE,122,0.0,0.0,53,0.00,FEW,OVC,0.00,WeatherDisplay:10.37,2013-07-16 17:04:00,
2013-07-16 13:09:00,86.2,68.1,30.17,SE,124,0.0,1.0,55,0.00,FEW,OVC,0.00,WeatherDisplay:10.37,2013-07-16 17:09:00,
2013-07-16 13:14:00,85.8,68.3,30.16,ESE,120,0.0,1.0,56,0.00,FEW,OVC,0.00,WeatherDisplay:10.37,2013-07-16 17:14:00,
2013-07-16 13:19:00,86.0,66.9,30.16,East,86,0.0,3.0,53,0.00,FEW,OVC,0.00,WeatherDisplay:10.37,2013-07-16 17:19:00,
2013-07-16 13:24:00,86.5,66.8,30.16,ENE,66,0.0,2.0,52,0.00,FEW,OVC,0.00,WeatherDisplay:10.37,2013-07-16 17:24:00,
2013-07-16 13:29:00,86.4,67.3,30.16,ENE,63,0.0,2.0,53,0.00,FEW,OVC,0.00,WeatherDisplay:10.37,2013-07-16 17:29:00,
2013-07-16 13:39:00,86.8,66.0,30.16,East,97,0.0,1.0,50,0.00,FEW,OVC,0.00,WeatherDisplay:10.37,2013-07-16 17:39:00,
2013-07-16 13:44:00,86.8,68.1,30.16,East,98,0.0,4.0,54,0.00,FEW,OVC,0.00,WeatherDisplay:10.37,2013-07-16 17:44:00,
2013-07-16 13:49:00,86.9,70.3,30.16,ESE,105,0.0,5.0,58,0.00,FEW,OVC,0.00,WeatherDisplay:10.37,2013-07-16 17:49:00,
2013-07-16 13:54:00,86.9,69.8,30.16,East,97,0.0,1.0,57,0.00,FEW,OVC,0.00,WeatherDisplay:10.37,2013-07-16 17:54:00,
2013-07-16 13:59:00,87.4,69.7,30.15,ESE,105,0.0,1.0,56,0.00,FEW,OVC,0.00,WeatherDisplay:10.37,2013-07-16 17:59:00,
2013-07-16 14:04:00,89.0,70.2,30.15,East,89,0.0,1.0,54,0.00,FEW,OVC,0.00,WeatherDisplay:10.37,2013-07-16 18:04:00,
2013-07-16 14:09:00,88.6,70.4,30.15,West,264,0.0,2.0,55,0.00,FEW,OVC,0.00,WeatherDisplay:10.37,2013-07-16 18:09:00,
2013-07-16 14:14:00,89.7,70.8,30.15,SSE,163,1.0,3.0,54,0.00,SCT,OVC,0.00,WeatherDisplay:10.37,2013-07-16 18:14:00,
2013-07-16 14:19:00,90.0,70.5,30.15,WSW,240,0.0,4.0,53,0.00,SCT,OVC,0.00,WeatherDisplay:10.37,2013-07-16 18:19:00,
2013-07-16 14:24:00,90.4,70.9,30.15,SW,231,1.0,8.0,53,0.00,SCT,OVC,0.00,WeatherDisplay:10.37,2013-07-16 18:24:00,
2013-07-16 14:29:00,90.2,71.3,30.15,SW,219,0.0,5.0,54,0.00,SCT,OVC,0.00,WeatherDisplay:10.37,2013-07-16 18:29:00,
2013-07-16 14:34:00,89.7,71.4,30.15,SSW,207,0.0,5.0,55,0.00,SCT,OVC,0.00,WeatherDisplay:10.37,2013-07-16 18:34:00,
2013-07-16 14:39:00,89.5,71.2,30.15,South,182,0.0,3.0,55,0.00,SCT,OVC,0.00,WeatherDisplay:10.37,2013-07-16 18:39:00,
2013-07-16 14:44:00,89.0,70.8,30.15,ESE,120,0.0,2.0,55,0.00,SCT,OVC,0.00,WeatherDisplay:10.37,2013-07-16 18:44:00,
2013-07-16 14:49:00,89.6,70.2,30.15,NNE,29,2.0,6.0,53,0.00,SCT,OVC,0.00,WeatherDisplay:10.37,2013-07-16 18:49:00,
2013-07-16 14:54:00,90.2,70.2,30.15,NW,314,1.0,5.0,52,0.00,SCT,OVC,0.00,WeatherDisplay:10.37,2013-07-16 18:54:00,
2013-07-16 14:59:00,90.0,71.1,30.15,West,274,1.0,5.0,54,0.00,SCT,OVC,0.00,WeatherDisplay:10.37,2013-07-16 18:59:00,
2013-07-16 15:04:00,89.5,70.7,30.15,WSW,238,1.0,5.0,54,0.00,SCT,OVC,0.00,WeatherDisplay:10.37,2013-07-16 19:04:00,
2013-07-16 15:09:00,90.0,72.7,30.15,SW,232,0.0,6.0,57,0.00,SCT,OVC,0.00,WeatherDisplay:10.37,2013-07-16 19:09:00,
2013-07-16 15:14:00,90.2,70.8,30.15,SW,223,0.0,6.0,53,0.00,SCT,OVC,0.00,WeatherDisplay:10.37,2013-07-16 19:14:00,
2013-07-16 15:24:00,89.9,70.4,30.14,South,190,0.0,3.0,53,0.00,SCT,OVC,0.00,WeatherDisplay:10.37,2013-07-16 19:24:00,
2013-07-16 15:29:00,87.8,68.6,30.14,SW,230,0.0,2.0,53,0.00,SCT,OVC,0.00,WeatherDisplay:10.37,2013-07-16 19:29:00,
2013-07-16 15:34:00,86.2,70.7,30.14,SW,231,0.0,1.0,60,0.00,SCT,OVC,0.00,WeatherDisplay:10.37,2013-07-16 19:34:00,
2013-07-16 15:39:00,86.2,70.2,30.14,SW,235,0.0,2.0,59,0.00,SCT,OVC,0.00,WeatherDisplay:10.37,2013-07-16 19:39:00,
2013-07-16 15:44:00,87.2,71.7,30.14,SSW,196,0.0,1.0,60,0.00,SCT,OVC,0.00,WeatherDisplay:10.37,2013-07-16 19:44:00,
2013-07-16 15:49:00,87.7,71.6,30.14,SW,229,0.0,2.0,59,0.00,SCT,OVC,0.00,WeatherDisplay:10.37,2013-07-16 19:49:00,
2013-07-16 15:54:00,87.7,71.1,30.14,WSW,246,0.0,1.0,58,0.00,SCT,OVC,0.00,WeatherDisplay:10.37,2013-07-16 19:54:00,
2013-07-16 15:59:00,86.7,72.6,30.14,SW,233,0.0,0.0,63,0.00,SCT,OVC,0.00,WeatherDisplay:10.37,2013-07-16 19:59:00,
2013-07-16 16:04:00,87.1,71.5,30.14,SW,216,0.0,1.0,60,0.00,SCT,OVC,0.00,WeatherDisplay:10.37,2013-07-16 20:04:00,
2013-07-16 16:09:00,87.9,71.8,30.14,ESE,105,0.0,3.0,59,0.00,SCT,OVC,0.00,WeatherDisplay:10.37,2013-07-16 20:09:00,
2013-07-16 16:14:00,88.0,71.9,30.14,East,98,0.0,2.0,59,0.00,SCT,OVC,0.00,WeatherDisplay:10.37,2013-07-16 20:14:00,
2013-07-16 16:19:00,88.0,70.8,30.13,ESE,106,1.0,3.0,57,0.00,SCT,OVC,0.00,WeatherDisplay:10.37,2013-07-16 20:19:00,
2013-07-16 16:29:00,89.1,71.3,30.13,SE,139,0.0,3.0,56,0.00,SCT,OVC,0.00,WeatherDisplay:10.37,2013-07-16 20:29:00,
2013-07-16 16:34:00,89.2,71.5,30.13,ESE,110,0.0,5.0,56,0.00,SCT,OVC,0.00,WeatherDisplay:10.37,2013-07-16 20:34:00,
2013-07-16 16:39:00,89.4,71.7,30.13,SSW,199,0.0,5.0,56,0.00,SCT,OVC,0.00,WeatherDisplay:10.37,2013-07-16 20:39:00,
2013-07-16 16:44:00,89.1,71.3,30.13,South,180,0.0,3.0,56,0.00,SCT,OVC,0.00,WeatherDisplay:10.37,2013-07-16 20:44:00,
2013-07-16 16:49:00,88.3,72.2,30.12,ESE,121,0.0,2.0,59,0.00,SCT,OVC,0.00,WeatherDisplay:10.37,2013-07-16 20:49:00,
2013-07-16 16:54:00,88.5,71.4,30.12,SSW,202,1.0,4.0,57,0.00,SCT,OVC,0.00,WeatherDisplay:10.37,2013-07-16 20:54:00,
2013-07-16 16:59:00,89.0,70.7,30.12,SSW,208,0.0,4.0,55,0.00,SCT,OVC,0.00,WeatherDisplay:10.37,2013-07-16 20:59:00,
2013-07-16 17:04:00,88.4,71.2,30.12,SSW,204,0.0,3.0,57,0.00,SCT,OVC,0.00,WeatherDisplay:10.37,2013-07-16 21:04:00,
2013-07-16 17:09:00,89.3,71.0,30.12,WSW,251,0.0,5.0,55,0.00,SCT,OVC,0.00,WeatherDisplay:10.37,2013-07-16 21:09:00,
2013-07-16 17:14:00,89.6,66.7,30.12,WNW,290,0.0,5.0,47,0.00,FEW,OVC,0.00,WeatherDisplay:10.37,2013-07-16 21:14:00,
2013-07-16 17:19:00,89.8,69.8,30.12,West,281,2.0,4.0,52,0.00,FEW,OVC,0.00,WeatherDisplay:10.37,2013-07-16 21:19:00,
2013-07-16 17:29:00,88.4,70.7,30.12,West,263,0.0,1.0,56,0.00,FEW,OVC,0.00,WeatherDisplay:10.37,2013-07-16 21:29:00,
2013-07-16 17:34:00,88.4,70.7,30.12,South,181,0.0,2.0,56,0.00,FEW,OVC,0.00,WeatherDisplay:10.37,2013-07-16 21:34:00,
2013-07-16 17:39:00,88.4,66.3,30.12,East,93,0.0,4.0,48,0.00,FEW,OVC,0.00,WeatherDisplay:10.37,2013-07-16 21:39:00,
2013-07-16 17:49:00,90.1,65.9,30.11,West,280,0.0,3.0,45,0.00,FEW,OVC,0.00,WeatherDisplay:10.37,2013-07-16 21:49:00,
2013-07-16 17:54:00,90.0,65.8,30.11,NW,320,0.0,1.0,45,0.00,FEW,OVC,0.00,WeatherDisplay:10.37,2013-07-16 21:54:00,
2013-07-16 17:59:00,89.9,67.0,30.11,NW,322,1.0,3.0,47,0.00,FEW,OVC,0.00,WeatherDisplay:10.37,2013-07-16 21:59:00,
2013-07-16 18:04:00,89.8,66.3,30.11,WNW,291,1.0,4.0,46,0.00,FEW,OVC,0.00,WeatherDisplay:10.37,2013-07-16 22:04:00,
2013-07-16 18:09:00,89.5,66.0,30.11,WNW,300,1.0,4.0,46,0.00,FEW,OVC,0.00,WeatherDisplay:10.37,2013-07-16 22:09:00,
2013-07-16 18:14:00,89.3,65.8,30.11,NW,304,1.0,3.0,46,0.00,FEW,OVC,0.00,WeatherDisplay:10.37,2013-07-16 22:14:00,
2013-07-16 18:24:00,89.0,66.7,30.11,NW,306,1.0,6.0,48,0.00,FEW,OVC,0.00,WeatherDisplay:10.37,2013-07-16 22:24:00,
2013-07-16 18:29:00,88.7,67.1,30.11,WNW,296,1.0,4.0,49,0.00,FEW,OVC,0.00,WeatherDisplay:10.37,2013-07-16 22:29:00,
2013-07-16 18:34:00,88.6,66.4,30.11,WNW,291,2.0,6.0,48,0.00,FEW,OVC,0.00,WeatherDisplay:10.37,2013-07-16 22:34:00,
2013-07-16 18:39:00,88.4,66.2,30.11,WNW,294,2.0,4.0,48,0.00,FEW,OVC,0.00,WeatherDisplay:10.37,2013-07-16 22:39:00,
2013-07-16 18:44:00,88.3,67.3,30.11,WNW,298,0.0,3.0,50,0.00,FEW,OVC,0.00,WeatherDisplay:10.37,2013-07-16 22:44:00,
2013-07-16 18:49:00,88.2,67.2,30.11,NW,305,1.0,5.0,50,0.00,FEW,OVC,0.00,WeatherDisplay:10.37,2013-07-16 22:49:00,
2013-07-16 18:54:00,88.1,67.1,30.11,WNW,301,2.0,6.0,50,0.00,FEW,OVC,0.00,WeatherDisplay:10.37,2013-07-16 22:54:00,
2013-07-16 18:59:00,87.7,68.4,30.11,WNW,295,0.0,6.0,53,0.00,FEW,OVC,0.00,WeatherDisplay:10.37,2013-07-16 22:59:00,
2013-07-16 19:04:00,87.6,68.4,30.11,WNW,293,1.0,2.0,53,0.00,FEW,OVC,0.00,WeatherDisplay:10.37,2013-07-16 23:04:00,
2013-07-16 19:09:00,87.5,68.8,30.11,WNW,302,0.0,3.0,54,0.00,FEW,OVC,0.00,WeatherDisplay:10.37,2013-07-16 23:09:00,
2013-07-16 19:14:00,87.4,69.7,30.11,WNW,301,0.0,1.0,56,0.00,FEW,OVC,0.00,WeatherDisplay:10.37,2013-07-16 23:14:00,
2013-07-16 19:19:00,86.9,69.3,30.11,NW,304,0.0,0.0,56,0.00,FEW,OVC,0.00,WeatherDisplay:10.37,2013-07-16 23:19:00,
2013-07-16 19:24:00,86.2,70.7,30.11,WNW,303,0.0,0.0,60,0.00,FEW,OVC,0.00,WeatherDisplay:10.37,2013-07-16 23:24:00,
2013-07-16 19:29:00,85.4,70.4,30.11,WSW,257,0.0,1.0,61,0.00,FEW,OVC,0.00,WeatherDisplay:10.37,2013-07-16 23:29:00,
2013-07-16 19:34:00,84.6,70.6,30.11,SE,134,0.0,0.0,63,0.00,FEW,OVC,0.00,WeatherDisplay:10.37,2013-07-16 23:34:00,
2013-07-16 19:39:00,84.0,70.0,30.11,SE,133,0.0,0.0,63,0.00,FEW,OVC,0.00,WeatherDisplay:10.37,2013-07-16 23:39:00,
2013-07-16 19:44:00,83.8,71.2,30.11,SE,133,0.0,0.0,66,0.00,FEW,OVC,0.00,WeatherDisplay:10.37,2013-07-16 23:44:00,
2013-07-16 19:49:00,83.7,70.2,30.11,SSE,150,0.0,2.0,64,0.00,FEW,OVC,0.00,WeatherDisplay:10.37,2013-07-16 23:49:00,
2013-07-16 19:54:00,83.7,70.7,30.11,WNW,290,0.0,2.0,65,0.00,FEW,OVC,0.00,WeatherDisplay:10.37,2013-07-16 23:54:00,
2013-07-16 19:59:00,83.5,70.5,30.11,West,269,0.0,2.0,65,0.00,FEW,OVC,0.00,WeatherDisplay:10.37,2013-07-16 23:59:00,
2013-07-16 20:04:00,83.1,70.6,30.11,WNW,295,0.0,1.0,66,0.00,FEW,OVC,0.00,WeatherDisplay:10.37,2013-07-17 00:04:00,
2013-07-16 20:09:00,82.7,70.7,30.11,WNW,301,0.0,1.0,67,0.00,FEW,OVC,0.00,WeatherDisplay:10.37,2013-07-17 00:09:00,
2013-07-16 20:14:00,82.4,70.8,30.11,WNW,297,0.0,2.0,68,0.00,FEW,OVC,0.00,WeatherDisplay:10.37,2013-07-17 00:14:00,
2013-07-16 20:19:00,82.0,70.8,30.11,WNW,292,0.0,1.0,69,0.00,FEW,OVC,0.00,WeatherDisplay:10.37,2013-07-17 00:19:00,
2013-07-16 20:24:00,81.7,70.9,30.11,WNW,294,0.0,0.0,70,0.00,FEW,OVC,0.00,WeatherDisplay:10.37,2013-07-17 00:24:00,
2013-07-16 20:29:00,81.2,71.3,30.11,WNW,294,0.0,0.0,72,0.00,FEW,OVC,0.00,WeatherDisplay:10.37,2013-07-17 00:29:00,
2013-07-16 20:34:00,80.5,71.5,30.11,WNW,294,0.0,0.0,74,0.00,FEW,OVC,0.00,WeatherDisplay:10.37,2013-07-17 00:34:00,
2013-07-16 20:39:00,80.0,71.3,30.11,WNW,294,0.0,0.0,75,0.00,FEW,OVC,0.00,WeatherDisplay:10.37,2013-07-17 00:39:00,
2013-07-16 20:44:00,79.7,71.5,30.11,WNW,294,0.0,0.0,76,0.00,FEW,OVC,0.00,WeatherDisplay:10.37,2013-07-17 00:44:00,
2013-07-16 20:49:00,79.4,71.6,30.11,WNW,294,0.0,0.0,77,0.00,FEW,OVC,0.00,WeatherDisplay:10.37,2013-07-17 00:49:00,
2013-07-16 20:54:00,79.2,71.4,30.11,WNW,294,0.0,0.0,77,0.00,FEW,OVC,0.00,WeatherDisplay:10.37,2013-07-17 00:54:00,
2013-07-16 20:59:00,78.8,71.4,30.12,WNW,294,0.0,0.0,78,0.00,FEW,OVC,0.00,WeatherDisplay:10.37,2013-07-17 00:59:00,
2013-07-16 21:04:00,78.5,71.4,30.12,WNW,294,0.0,0.0,79,0.00,FEW,OVC,0.00,WeatherDisplay:10.37,2013-07-17 01:04:00,
2013-07-16 21:09:00,78.1,71.4,30.12,WNW,294,0.0,0.0,80,0.00,FEW,OVC,0.00,WeatherDisplay:10.37,2013-07-17 01:09:00,
2013-07-16 21:14:00,77.9,71.3,30.12,WNW,294,0.0,0.0,80,0.00,SCT,OVC,0.00,WeatherDisplay:10.37,2013-07-17 01:14:00,
2013-07-16 21:24:00,77.5,71.2,30.12,WNW,294,0.0,0.0,81,0.00,SCT,OVC,0.00,WeatherDisplay:10.37,2013-07-17 01:24:00,
2013-07-16 21:29:00,77.1,70.8,30.12,WNW,294,0.0,0.0,81,0.00,SCT,OVC,0.00,WeatherDisplay:10.37,2013-07-17 01:29:00,
2013-07-16 21:34:00,76.9,71.0,30.12,WNW,294,0.0,0.0,82,0.00,SCT,OVC,0.00,WeatherDisplay:10.37,2013-07-17 01:34:00,
2013-07-16 21:39:00,76.6,71.1,30.12,WNW,294,0.0,0.0,83,0.00,SCT,OVC,0.00,WeatherDisplay:10.37,2013-07-17 01:39:00,
2013-07-16 21:44:00,76.4,71.2,30.12,WNW,294,0.0,0.0,84,0.00,SCT,OVC,0.00,WeatherDisplay:10.37,2013-07-17 01:44:00,
2013-07-16 21:49:00,76.2,71.1,30.12,WNW,294,0.0,0.0,84,0.00,SCT,OVC,0.00,WeatherDisplay:10.37,2013-07-17 01:49:00,
2013-07-16 21:54:00,76.2,71.0,30.12,WNW,294,0.0,0.0,84,0.00,SCT,OVC,0.00,WeatherDisplay:10.37,2013-07-17 01:54:00,
2013-07-16 21:59:00,76.1,71.3,30.12,WNW,294,0.0,0.0,85,0.00,SCT,OVC,0.00,WeatherDisplay:10.37,2013-07-17 01:59:00,
2013-07-16 22:04:00,76.0,71.2,30.12,WNW,294,0.0,0.0,85,0.00,SCT,OVC,0.00,WeatherDisplay:10.37,2013-07-17 02:04:00,
2013-07-16 22:14:00,76.2,71.3,30.12,WNW,294,0.0,0.0,85,0.00,SCT,OVC,0.00,WeatherDisplay:10.37,2013-07-17 02:14:00,
2013-07-16 22:19:00,76.3,71.1,30.12,WNW,294,0.0,0.0,84,0.00,SCT,OVC,0.00,WeatherDisplay:10.37,2013-07-17 02:19:00,
2013-07-16 22:24:00,76.5,71.3,30.12,WNW,294,0.0,0.0,84,0.00,SCT,OVC,0.00,WeatherDisplay:10.37,2013-07-17 02:24:00,
2013-07-16 22:29:00,76.5,71.3,30.12,WNW,294,0.0,0.0,84,0.00,SCT,OVC,0.00,WeatherDisplay:10.37,2013-07-17 02:29:00,
2013-07-16 22:34:00,76.5,71.3,30.12,WNW,294,0.0,0.0,84,0.00,SCT,OVC,0.00,WeatherDisplay:10.37,2013-07-17 02:34:00,
2013-07-16 22:39:00,76.7,71.5,30.12,WNW,294,0.0,0.0,84,0.00,SCT,OVC,0.00,WeatherDisplay:10.37,2013-07-17 02:39:00,
2013-07-16 22:44:00,76.7,71.2,30.12,WNW,294,0.0,0.0,83,0.00,SCT,OVC,0.00,WeatherDisplay:10.37,2013-07-17 02:44:00,
2013-07-16 22:49:00,76.9,71.0,30.12,WNW,294,0.0,0.0,82,0.00,SCT,OVC,0.00,WeatherDisplay:10.37,2013-07-17 02:49:00,
2013-07-16 22:54:00,77.0,71.1,30.12,WNW,293,0.0,1.0,82,0.00,SCT,OVC,0.00,WeatherDisplay:10.37,2013-07-17 02:54:00,
2013-07-16 22:59:00,77.1,71.1,30.12,WNW,291,0.0,1.0,82,0.00,SCT,OVC,0.00,WeatherDisplay:10.37,2013-07-17 02:59:00,
2013-07-16 23:04:00,76.9,71.0,30.12,WNW,291,0.0,1.0,82,0.00,SCT,OVC,0.00,WeatherDisplay:10.37,2013-07-17 03:04:00,
2013-07-16 23:09:00,77.0,71.1,30.12,WNW,292,0.0,1.0,82,0.00,SCT,OVC,0.00,WeatherDisplay:10.37,2013-07-17 03:09:00,
2013-07-16 23:14:00,77.0,70.7,30.12,WNW,290,0.0,2.0,81,0.00,BKN,OVC,0.00,WeatherDisplay:10.37,2013-07-17 03:14:00,
2013-07-16 23:19:00,77.0,71.1,30.12,WNW,295,0.0,1.0,82,0.00,BKN,OVC,0.00,WeatherDisplay:10.37,2013-07-17 03:19:00,
2013-07-16 23:24:00,77.0,70.7,30.12,WNW,293,0.0,3.0,81,0.00,BKN,OVC,0.00,WeatherDisplay:10.37,2013-07-17 03:24:00,
2013-07-16 23:29:00,77.1,70.8,30.12,WNW,286,0.0,2.0,81,0.00,BKN,OVC,0.00,WeatherDisplay:10.37,2013-07-17 03:29:00,
2013-07-16 23:34:00,77.2,70.9,30.12,West,270,0.0,1.0,81,0.00,BKN,OVC,0.00,WeatherDisplay:10.37,2013-07-17 03:34:00,
2013-07-16 23:39:00,76.8,70.9,30.11,West,262,0.0,0.0,82,0.00,BKN,OVC,0.00,WeatherDisplay:10.37,2013-07-17 03:39:00,
2013-07-16 23:44:00,76.4,70.8,30.12,West,262,0.0,0.0,83,0.00,BKN,OVC,0.00,WeatherDisplay:10.37,2013-07-17 03:44:00,
2013-07-16 23:49:00,76.1,70.6,30.11,West,262,0.0,0.0,83,0.00,BKN,OVC,0.00,WeatherDisplay:10.37,2013-07-17 03:49:00,
2013-07-16 23:54:00,76.0,70.8,30.11,West,262,0.0,0.0,84,0.00,BKN,OVC,0.00,WeatherDisplay:10.37,2013-07-17 03:54:00,
2013-07-16 23:59:00,75.8,70.6,30.11,West,262,0.0,0.0,84,0.00,BKN,OVC,0.00,WeatherDisplay:10.37,2013-07-17 03:59:00,